Location: LDNL
(36.4545°S, 141.6685°E)
Time: 03:40:27
(UTC+11:00)

A-11 Canister half - Pass Details

Date: 16 August 2022
Orbit: 1524 x 1684 km, 47.3° (Epoch: 05 October)

Event Time Altitude Azimuth Distance (km) Brightness Sun altitude
Rises 13:38:33 0° 4° (N) 4,753 12.4 37.8°
Reaches altitude 10° 13:43:27 10° 25° (NNE) 3,746 11.7 37.4°
Maximum altitude 13:48:15 15° 57° (ENE) 3,336 11.1 37.1°
Drops below altitude 10° 13:53:00 10° 88° (E) 3,716 10.9 36.7°
Sets 13:57:46 0° 109° (ESE) 4,693 11.2 36.4°
